Location: P�rn�nmaa
(61.1833°N, 23.0000°E)
Time: 19:12:26
(UTC+00:00)

CZ-4 R/B - Pass Details

Date: 08 December 2019
Orbit: 579 x 590 km, 97.8° (Epoch: 17 January)

Event Time Altitude Azimuth Distance (km) Brightness Sun altitude
Rises 16:05:32 0° 157° (SSE) 2,819 7.9 -18.1°
Reaches altitude 10° 16:07:41 10° 156° (SSE) 1,922 7.0 -18.4°
Maximum altitude 16:11:52 80° 71° (ENE) 609 4.3 -18.8°
Drops below altitude 10° 16:16:04 10° 344° (NNW) 1,935 7.1 -19.3°
Sets 16:18:14 0° 344° (NNW) 2,840 8.0 -19.6°
